Location: Clyde
(45.1830°S, 169.3170°E)
Time: 18:13:15
(UTC+12:00)

deb Chang Zheng 4 - Pass Details

Date: 14 May 2021
Orbit: 597 x 622 km, 98.6° (Epoch: 16 June)

Event Time Altitude Azimuth Distance (km) Brightness Sun altitude
Rises 18:51:24 0° 168° (SSE) 2,932 6.8 -15.3°
Reaches altitude 10° 18:53:37 10° 169° (S) 2,021 6.0 -15.6°
Maximum altitude 18:58:00 75° 253° (WSW) 657 3.8 -16.4°
Drops below altitude 10° 19:02:22 10° 338° (NNW) 2,003 6.6 -17.2°
Sets 19:04:33 0° 340° (NNW) 2,903 7.4 -17.5°
